Regional Weather Roundup
Issued by NWS

Home | Current Version | Previous Version | Text Only | Print | Product List | Glossary On
Versions: 1 2 3 4 5 6 7 8 9 10 11 12 13 14 15 16 17 18 19 20 21 22 23 24 25 26 27 28 29 30 31 32 33 34 35 36 37 38 39 40 41 42 43 44 45 46 47 48 49 50
000
ASUS43 KMPX 221101
RWRMN
WEATHER ROUNDUP FOR MINNESOTA
NATIONAL WEATHER SERVICE TWIN CITIES/CHANHASSEN MN
600 AM CDT SUN OCT 22 2017


NOTE: "FAIR" INDICATES FEW OR NO CLOUDS BELOW 12,000 FEET WITH NO
SIGNIFICANT WEATHER AND/OR OBSTRUCTIONS TO VISIBILITY. N/A MEANS
CURRENT SKY AND/OR WEATHER CONDITIONS ARE NOT AVAILABLE.

MNZ060>063-068>070-221200-
   Twin Cities Metro

CITY           SKY/WX    TMP DP  RH WIND       PRES   REMARKS
TWIN CITIES    CLOUDY    49  43  80 W7        29.92R
ST PAUL        CLOUDY    50  42  74 W8        29.93R
CRYSTAL        CLOUDY    49  39  68 W10       29.91R
BLAINE         CLOUDY    50  43  76 W8        29.91R
LAKEVILLE      CLOUDY    46  41  81 W6        29.93R
EDEN PRAIRIE   PTCLDY    48  41  76 W6        29.92R
SOUTH ST PAUL  CLOUDY    49  42  75 W5        29.92R
LAKE ELMO      FAIR      50  41  71 W8        29.92R
$$
MNZ001>005-007-008-013>017-022>024-027-028-221200-
   Northwest Minnesota

CITY           SKY/WX    TMP DP  RH WIND       PRES   REMARKS
BEMIDJI        CLEAR     44  37  76 SW10      29.76R
HALLOCK        CLOUDY    46  37  71 W20G26    29.66R
ROSEAU         CLOUDY    46  41  81 SW15      29.65R
CROOKSTON      CLEAR     45  36  70 W16       29.78R
FOSSTON        CLEAR     39  34  81 SW14      29.79R
DETROIT LAKES  CLEAR     45  36  70 W13       29.84S
MOORHEAD       CLEAR     41  34  75 SW7       29.86R
PARK RAPIDS    CLEAR     43  37  79 SW10      29.81R
MAHNOMEN       FAIR      42  35  79 SW13      29.81R
$$
MNZ006-009>011-018-025>026-221200-
   North Central Minnesota

CITY           SKY/WX    TMP DP  RH WIND       PRES   REMARKS
BAUDETTE       CLOUDY    46  39  76 SW14G26   29.66R
FLAG ISLAND    CLOUDY    45  41  87 SW15      29.60R
INTL FALLS     CLOUDY    46  42  86 SW12      29.67R
WASKISH        CLOUDY    48  39  71 W20G25    29.71R
BIG FORK       MOCLDY    46  39  76 SW12      29.74R
LONGVILLE      CLOUDY    45  39  81 W6        29.80R
GRAND RAPIDS   CLOUDY    46  41  82 SW8       29.80R
CRANE LAKE     MOCLDY    45  43  93 S6        29.72R
ORR            MOCLDY    45  41  87 S6        29.70R
COOK           CLOUDY    45  43  93 SW9       29.74R
WALKER         FAIR      43  37  77 SW10      29.79R
$$
MNZ012-019>021-037-221200-
   Northeast Minnesota

CITY           SKY/WX    TMP DP  RH WIND       PRES   REMARKS
DULUTH         CLOUDY    45  43  93 W14       29.79R
ELY            MOCLDY    46  43  87 SW8       29.73R
HIBBING        CLOUDY    44  41  89 SW6       29.76R
EVELETH        CLOUDY    44  44  97 SW10      29.77R
DULUTH HARBOR  CLOUDY    50  46  87 SW15      29.81R
TWO HARBORS    PTCLDY    48  45  87 SW8       29.76R
GRAND MARAIS     N/A     50  49  96 W8        29.71R
G MARAIS ARPRT CLOUDY    48  45  87 SW7       29.72R
$$
MNZ029>031-032-039>041-046>048-054>057-064-221200-
   West Central Minnesota

CITY           SKY/WX    TMP DP  RH WIND       PRES   REMARKS
FERGUS FALLS   CLEAR     37  34  87 W6        29.89S
WHEATON        CLEAR     41  34  75 SW6       29.92R
MORRIS         CLEAR     41  37  87 W8        29.90S
ALEXANDRIA     CLEAR     44  37  76 W10       29.89S
ELBOW LAKE     FAIR      37  36  93 W8        29.89S
WADENA         CLEAR     43  37  81 W8        29.84R
GLENWOOD       CLEAR     43  39  87 W10       29.90R
APPLETON       CLEAR     39  36  87 SW6       29.92S
BENSON         CLEAR     39  36  87 W8        29.93R
ORTONVILLE     CLEAR     43  36  75 W8G16     29.92S
MADISON        CLEAR     41  37  87 W3        29.93S
WILLMAR        FAIR      41  37  87 SW6       29.93S
$$
MNZ033>034-036-042>043-049>051-058-059-221200-
   Central Minnesota

CITY           SKY/WX    TMP DP  RH WIND       PRES   REMARKS
ST CLOUD       CLOUDY    45  41  86 SW8       29.89S
SAUK CENTRE    FAIR      43  38  84 SW6       29.90R
PAYNESVILLE    CLOUDY    42  40  91 W6        29.91S
AITKIN         CLOUDY    43  39  87 SW5       29.81F
PINE RIVER     PTCLDY    43  36  75 SW3       29.86R
BRAINERD       CLOUDY   N/A N/A N/A W10       29.85R
STAPLES        CLOUDY    43  36  75 SW6       29.85R
LONG PRAIRIE   FAIR      41  37  87 S6        29.89R
LITTLE FALLS   CLOUDY    45  34  65 W6        29.87S
LITCHFIELD     CLOUDY    46  43  87 W5        29.92S
BUFFALO        CLOUDY    46  41  80 CALM      29.93R
MAPLE LAKE     CLOUDY    46  42  86 SW3       29.91F
HUTCHINSON     CLEAR     44  41  88 SW3       29.94S
$$
MNZ037-044-045-052-053-221200-
   East Central Minnesota

CITY           SKY/WX    TMP DP  RH WIND       PRES   REMARKS
PRINCETON      CLOUDY    46  43  87 SW5       29.90R
MORA           CLOUDY    45  41  87 W6        29.88R
CAMBRIDGE      CLOUDY    50  39  66 SW6       29.89R
RUSH CITY      CLOUDY    47  41  78 W10G17    29.88R
MOOSE LAKE     MOCLDY    45  41  87 CALM      29.81S
HINCKLEY       FAIR      45  43  93 SW9       29.86R
CLOQUET        PTCLDY    45  41  87 SW8       29.81R
MCGREGOR       CLOUDY    45  41  87 SW6       29.82S
$$
MNZ071>073-080-081-089-090-097-098-221200-
   Southwest Minnesota

CITY           SKY/WX    TMP DP  RH WIND       PRES   REMARKS
MONTEVIDEO     CLEAR     41  36  81 W3        29.93S
GRANITE FALLS  CLEAR     41  38  87 SW7       29.95S
CANBY          CLEAR     44  36  72 SW12G17   29.95R
MARSHALL       CLEAR     43  36  76 W9        29.96R
REDWOOD FALLS  MOCLDY    45  37  73 W7        29.94S
OLIVIA         PTCLDY    41  37  87 SW6       29.93S
PIPESTONE      CLEAR     34  32  93 CALM      29.98R
WORTHINGTON    CLEAR     40  36  86 SW7       30.00R
JACKSON        CLOUDY    41  36  81 W5        29.99R
TRACY          CLEAR     44  38  80 W8        29.96R
SLAYTON        CLEAR     42  36  79 W9        29.98R
$$
MNZ065>067-074>077-082>085-091>093-221200-
   South Central Minnesota

CITY           SKY/WX    TMP DP  RH WIND       PRES   REMARKS
NEW ULM        CLOUDY    43  39  87 CALM      29.95S
ST JAMES       MOCLDY    45  39  81 SW6       29.97R
FAIRMONT       CLOUDY    45  40  82 W6        29.99R
GLENCOE        CLOUDY    46  42  86 SW3       29.93R
FARIBAULT      CLOUDY    48  43  81 W8        29.95R
OWATONNA       CLOUDY    46  43  87 SW5       29.95S
WASECA         CLOUDY    45  41  87 W5        29.97R
$$
MNZ078>079-086>088-094>096-221200-
   Southeast Minnesota

CITY           SKY/WX    TMP DP  RH WIND       PRES   REMARKS
ROCHESTER      CLOUDY    48  44  86 W8        29.95R
RED WING       CLOUDY    52  41  66 W8        29.93R
STANTON        CLOUDY    50  42  73 W5        29.93R
DODGE CENTER   CLOUDY    48  41  76 W8        29.95R
WINONA         DRIZZLE   52  46  82 CALM      29.94R
AUSTIN         CLOUDY    48  41  76 W6        29.96R
PRESTON        CLOUDY    48  43  84 W7        29.95R
$$
ABBREVIATIONS USED IN REMARKS
   TC - TEMPERATURES IN CELSIUS
  WCI - WIND CHILL INDEX
   HX - HEAT INDEX
  VSB - VISIBILITY
$$




USA.gov is the U.S. government's official web portal to all federal, state and local government web resources and services.